Year,Month,Day,Hour,Minute,Value (Times are PST for temperature in C)
2013,02,19,00,00,3.70
2013,02,19,00,01,3.70
2013,02,19,00,02,3.70
2013,02,19,00,03,3.70
2013,02,19,00,04,3.70
2013,02,19,00,05,3.70
2013,02,19,00,06,3.70
2013,02,19,00,07,3.70
2013,02,19,00,08,3.70
2013,02,19,00,09,3.70
2013,02,19,00,10,3.70
2013,02,19,00,11,3.70
2013,02,19,00,12,3.70
2013,02,19,00,13,3.70
2013,02,19,00,14,3.60
2013,02,19,00,15,3.60
2013,02,19,00,16,3.60
2013,02,19,00,17,3.60
2013,02,19,00,18,3.60
2013,02,19,00,19,3.60
2013,02,19,00,20,3.60
2013,02,19,00,21,3.60
2013,02,19,00,22,3.60
2013,02,19,00,23,3.60
2013,02,19,00,24,3.60
2013,02,19,00,25,3.60
2013,02,19,00,26,3.60
2013,02,19,00,27,3.60
2013,02,19,00,28,3.60
2013,02,19,00,29,3.60
2013,02,19,00,30,3.60
2013,02,19,00,31,3.60
2013,02,19,00,32,3.60
2013,02,19,00,33,3.60
2013,02,19,00,34,3.60
2013,02,19,00,35,3.60
2013,02,19,00,36,3.60
2013,02,19,00,37,3.60
2013,02,19,00,38,3.60
2013,02,19,00,39,3.60
2013,02,19,00,40,3.60
2013,02,19,00,41,3.60
2013,02,19,00,42,3.60
2013,02,19,00,43,3.60
2013,02,19,00,44,3.60
2013,02,19,00,45,3.60
2013,02,19,00,46,3.60
2013,02,19,00,47,3.60
2013,02,19,00,48,3.60
2013,02,19,00,49,3.60
2013,02,19,00,50,3.60
2013,02,19,00,51,3.60
2013,02,19,00,52,3.60
2013,02,19,00,53,3.50
2013,02,19,00,54,3.50
2013,02,19,00,55,3.50
2013,02,19,00,56,3.50
2013,02,19,00,57,3.50
2013,02,19,00,58,3.50
2013,02,19,00,59,3.50
2013,02,19,01,00,3.50
2013,02,19,01,01,3.50
2013,02,19,01,02,3.50
2013,02,19,01,03,3.50
2013,02,19,01,04,3.50
2013,02,19,01,05,3.50
2013,02,19,01,06,3.50
2013,02,19,01,07,3.50
2013,02,19,01,08,3.40
2013,02,19,01,09,3.40
2013,02,19,01,10,3.40
2013,02,19,01,11,3.40
2013,02,19,01,12,3.40
2013,02,19,01,13,3.40
2013,02,19,01,14,3.40
2013,02,19,01,15,3.40
2013,02,19,01,16,3.40
2013,02,19,01,17,3.40
2013,02,19,01,18,3.40
2013,02,19,01,19,3.40
2013,02,19,01,20,3.40
2013,02,19,01,21,3.40
2013,02,19,01,22,3.40
2013,02,19,01,23,3.40
2013,02,19,01,24,3.40
2013,02,19,01,25,3.40
2013,02,19,01,26,3.40
2013,02,19,01,27,3.40
2013,02,19,01,28,3.40
2013,02,19,01,29,3.40
2013,02,19,01,30,3.30
2013,02,19,01,31,3.30
2013,02,19,01,32,3.30
2013,02,19,01,33,3.30
2013,02,19,01,34,3.30
2013,02,19,01,35,3.30
2013,02,19,01,36,3.30
2013,02,19,01,37,3.30
2013,02,19,01,38,3.30
2013,02,19,01,39,3.30
2013,02,19,01,40,3.30
2013,02,19,01,41,3.30
2013,02,19,01,42,3.30
2013,02,19,01,43,3.30
2013,02,19,01,44,3.30
2013,02,19,01,45,3.30
2013,02,19,01,46,3.30
2013,02,19,01,47,3.20
2013,02,19,01,48,3.20
2013,02,19,01,49,3.20
2013,02,19,01,50,3.20
2013,02,19,01,51,3.20
2013,02,19,01,52,3.20
2013,02,19,01,53,3.20
2013,02,19,01,54,3.20
2013,02,19,01,55,3.20
2013,02,19,01,56,3.20
2013,02,19,01,57,3.20
2013,02,19,01,58,3.20
2013,02,19,01,59,3.20
2013,02,19,02,00,3.20
2013,02,19,02,01,3.20
2013,02,19,02,02,3.20
2013,02,19,02,03,3.20
2013,02,19,02,04,3.20
2013,02,19,02,05,3.20
2013,02,19,02,06,3.20
2013,02,19,02,07,3.20
2013,02,19,02,08,3.20
2013,02,19,02,09,3.20
2013,02,19,02,10,3.20
2013,02,19,02,11,3.20
2013,02,19,02,12,3.20
2013,02,19,02,13,3.20
2013,02,19,02,14,3.20
2013,02,19,02,15,3.20
2013,02,19,02,16,3.20
2013,02,19,02,17,3.20
2013,02,19,02,18,3.20
2013,02,19,02,19,3.20
2013,02,19,02,20,3.10
2013,02,19,02,21,3.10
2013,02,19,02,22,3.10
2013,02,19,02,23,3.10
2013,02,19,02,24,3.10
2013,02,19,02,25,3.10
2013,02,19,02,26,3.10
2013,02,19,02,27,3.10
2013,02,19,02,28,3.10
2013,02,19,02,29,3.10
2013,02,19,02,30,3.10
2013,02,19,02,31,3.10
2013,02,19,02,32,3.10
2013,02,19,02,33,3.10
2013,02,19,02,34,3.10
2013,02,19,02,35,3.10
2013,02,19,02,36,3.10
2013,02,19,02,37,3.10
2013,02,19,02,38,3.10
2013,02,19,02,39,3.10
2013,02,19,02,40,3.10
2013,02,19,02,41,3.10
2013,02,19,02,42,3.10
2013,02,19,02,43,3.10
2013,02,19,02,44,3.10
2013,02,19,02,45,3.10
2013,02,19,02,46,3.10
2013,02,19,02,47,3.10
2013,02,19,02,48,3.10
2013,02,19,02,49,3.10
2013,02,19,02,50,3.10
2013,02,19,02,51,3.10
2013,02,19,02,52,3.10
2013,02,19,02,53,3.10
2013,02,19,02,54,3.10
2013,02,19,02,55,3.10
2013,02,19,02,56,3.10
2013,02,19,02,57,3.10
2013,02,19,02,58,3.10
2013,02,19,02,59,3.10
2013,02,19,03,00,3.10
2013,02,19,03,01,3.10
2013,02,19,03,02,3.10
2013,02,19,03,03,3.10
2013,02,19,03,04,3.10
2013,02,19,03,05,3.10
2013,02,19,03,06,3.10
2013,02,19,03,07,3.10
2013,02,19,03,08,3.10
2013,02,19,03,09,3.10
2013,02,19,03,10,3.10
2013,02,19,03,11,3.10
2013,02,19,03,12,3.10
2013,02,19,03,13,3.10
2013,02,19,03,14,3.10
2013,02,19,03,15,3.10
2013,02,19,03,16,3.10
2013,02,19,03,17,3.10
2013,02,19,03,18,3.10
2013,02,19,03,19,3.10
2013,02,19,03,20,3.10
2013,02,19,03,21,3.10
2013,02,19,03,22,3.10
2013,02,19,03,23,3.10
2013,02,19,03,24,3.10
2013,02,19,03,25,3.10
2013,02,19,03,26,3.10
2013,02,19,03,27,3.10
2013,02,19,03,28,3.10
2013,02,19,03,29,3.10
2013,02,19,03,30,3.10
2013,02,19,03,31,3.10
2013,02,19,03,32,3.10
2013,02,19,03,33,3.10
2013,02,19,03,34,3.10
2013,02,19,03,35,3.10
2013,02,19,03,36,3.10
2013,02,19,03,37,3.10
2013,02,19,03,38,3.10
2013,02,19,03,39,3.10
2013,02,19,03,40,3.10
2013,02,19,03,41,3.10
2013,02,19,03,42,3.10
2013,02,19,03,43,3.10
2013,02,19,03,44,3.10
2013,02,19,03,45,3.10
2013,02,19,03,46,3.10
2013,02,19,03,47,3.10
2013,02,19,03,48,3.10
2013,02,19,03,49,3.10
2013,02,19,03,50,3.10
2013,02,19,03,51,3.10
2013,02,19,03,52,3.10
2013,02,19,03,53,3.10
2013,02,19,03,54,3.10
2013,02,19,03,55,3.10
2013,02,19,03,56,3.10
2013,02,19,03,57,3.10
2013,02,19,03,58,3.10
2013,02,19,03,59,3.10
2013,02,19,04,00,3.10
2013,02,19,04,01,3.10
2013,02,19,04,02,3.10
2013,02,19,04,03,3.10
2013,02,19,04,04,3.10
2013,02,19,04,05,3.10
2013,02,19,04,06,3.10
2013,02,19,04,07,3.10
2013,02,19,04,08,3.10
2013,02,19,04,09,3.10
2013,02,19,04,10,3.10
2013,02,19,04,11,3.10
2013,02,19,04,12,3.10
2013,02,19,04,13,3.10
2013,02,19,04,14,3.10
2013,02,19,04,15,3.10
2013,02,19,04,16,3.10
2013,02,19,04,17,3.10
2013,02,19,04,18,3.10
2013,02,19,04,19,3.10
2013,02,19,04,20,3.10
2013,02,19,04,21,3.10
2013,02,19,04,22,3.10
2013,02,19,04,23,3.10
2013,02,19,04,24,3.10
2013,02,19,04,25,3.10
2013,02,19,04,26,3.10
2013,02,19,04,27,3.10
2013,02,19,04,28,3.00
2013,02,19,04,29,3.00
2013,02,19,04,30,3.00
2013,02,19,04,31,3.00
2013,02,19,04,32,3.00
2013,02,19,04,33,3.00
2013,02,19,04,34,3.00
2013,02,19,04,35,3.00
2013,02,19,04,36,3.00
2013,02,19,04,37,3.00
2013,02,19,04,38,3.00
2013,02,19,04,39,3.00
2013,02,19,04,40,3.00
2013,02,19,04,41,3.00
2013,02,19,04,42,3.00
2013,02,19,04,43,3.00
2013,02,19,04,44,3.00
2013,02,19,04,45,3.00
2013,02,19,04,46,2.90
2013,02,19,04,47,2.90
2013,02,19,04,48,2.90
2013,02,19,04,49,2.90
2013,02,19,04,50,3.00
2013,02,19,04,51,3.00
2013,02,19,04,52,3.00
2013,02,19,04,53,3.00
2013,02,19,04,54,3.00
2013,02,19,04,55,3.00
2013,02,19,04,56,3.00
2013,02,19,04,57,3.00
2013,02,19,04,58,3.00
2013,02,19,04,59,3.00
2013,02,19,05,00,2.90
2013,02,19,05,01,3.00
2013,02,19,05,02,2.90
2013,02,19,05,03,2.90
2013,02,19,05,04,2.90
2013,02,19,05,05,2.90
2013,02,19,05,06,2.90
2013,02,19,05,07,2.90
2013,02,19,05,08,2.90
2013,02,19,05,09,2.90
2013,02,19,05,10,2.90
2013,02,19,05,11,2.90
2013,02,19,05,12,2.90
2013,02,19,05,13,2.90
2013,02,19,05,14,2.90
2013,02,19,05,15,2.90
2013,02,19,05,16,2.90
2013,02,19,05,17,2.90
2013,02,19,05,18,2.90
2013,02,19,05,19,2.90
2013,02,19,05,20,2.90
2013,02,19,05,21,2.90
2013,02,19,05,22,2.90
2013,02,19,05,23,2.80
2013,02,19,05,24,2.80
2013,02,19,05,25,2.80
2013,02,19,05,26,2.90
2013,02,19,05,27,2.80
2013,02,19,05,28,2.80
2013,02,19,05,29,2.80
2013,02,19,05,30,2.90
2013,02,19,05,31,2.80
2013,02,19,05,32,2.80
2013,02,19,05,33,2.80
2013,02,19,05,34,2.80
2013,02,19,05,35,2.80
2013,02,19,05,36,2.80
2013,02,19,05,37,2.90
2013,02,19,05,38,2.80
2013,02,19,05,39,2.80
2013,02,19,05,40,2.80
2013,02,19,05,41,2.80
2013,02,19,05,42,2.80
2013,02,19,05,43,2.80
2013,02,19,05,44,2.80
2013,02,19,05,45,2.80
2013,02,19,05,46,2.80
2013,02,19,05,47,2.80
2013,02,19,05,48,2.80
2013,02,19,05,49,2.80
2013,02,19,05,50,2.80
2013,02,19,05,51,2.80
2013,02,19,05,52,2.80
2013,02,19,05,53,2.80
2013,02,19,05,54,2.80
2013,02,19,05,55,2.80
2013,02,19,05,56,2.80
2013,02,19,05,57,2.80
2013,02,19,05,58,2.80
2013,02,19,05,59,2.80
2013,02,19,06,00,2.80
2013,02,19,06,01,2.80
2013,02,19,06,02,2.80
2013,02,19,06,03,2.80
2013,02,19,06,04,2.80
2013,02,19,06,05,2.80
2013,02,19,06,06,2.70
2013,02,19,06,07,2.70
2013,02,19,06,08,2.70
2013,02,19,06,09,2.70
2013,02,19,06,10,2.60
2013,02,19,06,11,2.60
2013,02,19,06,12,2.60
2013,02,19,06,13,2.60
2013,02,19,06,14,2.60
2013,02,19,06,15,2.50
2013,02,19,06,16,2.50
2013,02,19,06,17,2.50
2013,02,19,06,18,2.50
2013,02,19,06,19,2.50
2013,02,19,06,20,2.40
2013,02,19,06,21,2.40
2013,02,19,06,22,2.40
2013,02,19,06,23,2.40
2013,02,19,06,24,2.40
2013,02,19,06,25,2.40
2013,02,19,06,26,2.30
2013,02,19,06,27,2.30
2013,02,19,06,28,2.30
2013,02,19,06,29,2.30
2013,02,19,06,30,2.30
2013,02,19,06,31,2.20
2013,02,19,06,32,2.20
2013,02,19,06,33,2.20
2013,02,19,06,34,2.20
2013,02,19,06,35,2.20
2013,02,19,06,36,2.20
2013,02,19,06,37,2.20
2013,02,19,06,38,2.20
2013,02,19,06,39,2.20
2013,02,19,06,40,2.10
2013,02,19,06,41,2.10
2013,02,19,06,42,2.10
2013,02,19,06,43,2.10
2013,02,19,06,44,2.00
2013,02,19,06,45,2.00
2013,02,19,06,46,2.00
2013,02,19,06,47,1.90
2013,02,19,06,48,1.90
2013,02,19,06,49,1.90
2013,02,19,06,50,1.90
2013,02,19,06,51,1.90
2013,02,19,06,52,1.90
2013,02,19,06,53,1.90
2013,02,19,06,54,1.90
2013,02,19,06,55,1.80
2013,02,19,06,56,1.80
2013,02,19,06,57,1.80
2013,02,19,06,58,1.80
2013,02,19,06,59,1.70
2013,02,19,07,00,1.70
2013,02,19,07,01,1.70
2013,02,19,07,02,1.70
2013,02,19,07,03,1.70
2013,02,19,07,04,1.60
2013,02,19,07,05,1.60
2013,02,19,07,06,1.60
2013,02,19,07,07,1.70
2013,02,19,07,08,1.70
2013,02,19,07,09,1.70
2013,02,19,07,10,1.70
2013,02,19,07,11,1.70
2013,02,19,07,12,1.70
2013,02,19,07,13,1.70
2013,02,19,07,14,1.70
2013,02,19,07,15,1.70
2013,02,19,07,16,1.70
2013,02,19,07,17,1.70
2013,02,19,07,18,1.70
2013,02,19,07,19,1.60
2013,02,19,07,20,1.60
2013,02,19,07,21,1.60
2013,02,19,07,22,1.60
2013,02,19,07,23,1.60
2013,02,19,07,24,1.50
2013,02,19,07,25,1.50
2013,02,19,07,26,1.50
2013,02,19,07,27,1.50
2013,02,19,07,28,1.40
2013,02,19,07,29,1.40
2013,02,19,07,30,1.40
2013,02,19,07,31,1.40
2013,02,19,07,32,1.40
2013,02,19,07,33,1.40
2013,02,19,07,34,1.40
2013,02,19,07,35,1.40
2013,02,19,07,36,1.40
2013,02,19,07,37,1.40
2013,02,19,07,38,1.30
2013,02,19,07,39,1.30
2013,02,19,07,40,1.30
2013,02,19,07,41,1.30
2013,02,19,07,42,1.30
2013,02,19,07,43,1.30
2013,02,19,07,44,1.30
2013,02,19,07,45,1.30
2013,02,19,07,46,1.20
2013,02,19,07,47,1.20
2013,02,19,07,48,1.20
2013,02,19,07,49,1.20
2013,02,19,07,50,1.30
2013,02,19,07,51,1.30
2013,02,19,07,52,1.30
2013,02,19,07,53,1.30
2013,02,19,07,54,1.30
2013,02,19,07,55,1.30
2013,02,19,07,56,1.30
2013,02,19,07,57,1.20
2013,02,19,07,58,1.20
2013,02,19,07,59,1.20
2013,02,19,08,00,1.20
2013,02,19,08,01,1.20
2013,02,19,08,02,1.20
2013,02,19,08,03,1.20
2013,02,19,08,04,1.20
2013,02,19,08,05,1.20
2013,02,19,08,06,1.20
2013,02,19,08,07,1.20
2013,02,19,08,08,1.20
2013,02,19,08,09,1.20
2013,02,19,08,10,1.20
2013,02,19,08,11,1.20
2013,02,19,08,12,1.10
2013,02,19,08,13,1.10
2013,02,19,08,14,1.10
2013,02,19,08,15,1.10
2013,02,19,08,16,1.10
2013,02,19,08,17,1.10
2013,02,19,08,18,1.10
2013,02,19,08,19,1.10
2013,02,19,08,20,1.10
2013,02,19,08,21,1.10
2013,02,19,08,22,1.10
2013,02,19,08,23,1.10
2013,02,19,08,24,1.10
2013,02,19,08,25,1.10
2013,02,19,08,26,1.00
2013,02,19,08,27,1.00
2013,02,19,08,28,1.00
2013,02,19,08,29,1.00
2013,02,19,08,30,1.00
2013,02,19,08,31,0.90
2013,02,19,08,32,0.90
2013,02,19,08,33,1.00
2013,02,19,08,34,1.00
2013,02,19,08,35,1.00
2013,02,19,08,36,1.00
2013,02,19,08,37,1.00
2013,02,19,08,38,1.00
2013,02,19,08,39,1.10
2013,02,19,08,40,1.10
2013,02,19,08,41,1.10
2013,02,19,08,42,1.10
2013,02,19,08,43,1.10
2013,02,19,08,44,1.10
2013,02,19,08,45,1.00
2013,02,19,08,46,1.00
2013,02,19,08,47,1.00
2013,02,19,08,48,0.90
2013,02,19,08,49,0.90
2013,02,19,08,50,0.90
2013,02,19,08,51,0.90
2013,02,19,08,52,0.90
2013,02,19,08,53,0.90
2013,02,19,08,54,0.90
2013,02,19,08,55,0.90
2013,02,19,08,56,0.80
2013,02,19,08,57,0.80
2013,02,19,08,58,0.80
2013,02,19,08,59,0.80
2013,02,19,09,00,0.80
2013,02,19,09,01,0.80
2013,02,19,09,02,0.80
2013,02,19,09,03,0.90
2013,02,19,09,04,0.90
2013,02,19,09,05,0.90
2013,02,19,09,06,0.90
2013,02,19,09,07,0.90
2013,02,19,09,08,0.90
2013,02,19,09,09,1.00
2013,02,19,09,10,0.90
2013,02,19,09,11,0.90
2013,02,19,09,12,1.00
2013,02,19,09,13,1.00
2013,02,19,09,14,1.00
2013,02,19,09,15,1.00
2013,02,19,09,16,1.00
2013,02,19,09,17,1.00
2013,02,19,09,18,1.00
2013,02,19,09,19,1.00
2013,02,19,09,20,0.90
2013,02,19,09,21,0.90
2013,02,19,09,22,0.90
2013,02,19,09,23,0.90
2013,02,19,09,24,0.80
2013,02,19,09,25,0.80
2013,02,19,09,26,0.80
2013,02,19,09,27,0.80
2013,02,19,09,28,0.80
2013,02,19,09,29,0.80
2013,02,19,09,30,0.80
2013,02,19,09,31,0.80
2013,02,19,09,32,0.80
2013,02,19,09,33,0.80
2013,02,19,09,34,0.80
2013,02,19,09,35,0.80
2013,02,19,09,36,0.90
2013,02,19,09,37,0.90
2013,02,19,09,38,0.90
2013,02,19,09,39,1.00
2013,02,19,09,40,1.00
2013,02,19,09,41,1.00
2013,02,19,09,42,1.00
2013,02,19,09,43,1.00
2013,02,19,09,44,1.00
2013,02,19,09,45,1.00
2013,02,19,09,46,1.00
2013,02,19,09,47,1.00
2013,02,19,09,48,1.00
2013,02,19,09,49,1.00
2013,02,19,09,50,0.90
2013,02,19,09,51,0.90
2013,02,19,09,52,0.90
2013,02,19,09,53,0.90
2013,02,19,09,54,0.90
2013,02,19,09,55,0.80
2013,02,19,09,56,0.80
2013,02,19,09,57,0.80
2013,02,19,09,58,0.90
2013,02,19,09,59,0.90
2013,02,19,10,00,1.00
2013,02,19,10,01,1.00
2013,02,19,10,02,1.00
2013,02,19,10,03,1.10
2013,02,19,10,04,1.10
2013,02,19,10,05,1.10
2013,02,19,10,06,1.10
2013,02,19,10,07,1.10
2013,02,19,10,08,1.10
2013,02,19,10,09,1.20
2013,02,19,10,10,1.20
2013,02,19,10,11,1.20
2013,02,19,10,12,1.20
2013,02,19,10,13,1.20
2013,02,19,10,14,1.20
2013,02,19,10,15,1.20
2013,02,19,10,16,1.20
2013,02,19,10,17,1.20
2013,02,19,10,18,1.20
2013,02,19,10,19,1.20
2013,02,19,10,20,1.20
2013,02,19,10,21,1.20
2013,02,19,10,22,1.20
2013,02,19,10,23,1.30
2013,02,19,10,24,1.30
2013,02,19,10,25,1.30
2013,02,19,10,26,1.30
2013,02,19,10,27,1.30
2013,02,19,10,28,1.30
2013,02,19,10,29,1.30
2013,02,19,10,30,1.40
2013,02,19,10,31,1.40
2013,02,19,10,32,1.40
2013,02,19,10,33,1.40
2013,02,19,10,34,1.50
2013,02,19,10,35,1.50
2013,02,19,10,36,1.50
2013,02,19,10,37,1.60
2013,02,19,10,38,1.60
2013,02,19,10,39,1.70
2013,02,19,10,40,1.70
2013,02,19,10,41,1.80
2013,02,19,10,42,1.80
2013,02,19,10,43,1.90
2013,02,19,10,44,2.00
2013,02,19,10,45,2.10
2013,02,19,10,46,2.20
2013,02,19,10,47,2.30
2013,02,19,10,48,2.30
2013,02,19,10,49,2.40
2013,02,19,10,50,2.50
2013,02,19,10,51,2.60
2013,02,19,10,52,2.70
2013,02,19,10,53,2.80
2013,02,19,10,54,3.00
2013,02,19,10,55,3.10
2013,02,19,10,56,3.20
2013,02,19,10,57,3.30
2013,02,19,10,58,3.50
2013,02,19,10,59,3.50
2013,02,19,11,00,3.60
2013,02,19,11,01,3.70
2013,02,19,11,02,3.80
2013,02,19,11,03,3.80
2013,02,19,11,04,3.90
2013,02,19,11,05,4.10
2013,02,19,11,06,4.20
2013,02,19,11,07,4.30
2013,02,19,11,08,4.40
2013,02,19,11,09,4.50
2013,02,19,11,10,4.60
2013,02,19,11,11,4.70
2013,02,19,11,12,4.80
2013,02,19,11,13,4.80
2013,02,19,11,14,4.90
2013,02,19,11,15,5.00
2013,02,19,11,16,5.10
2013,02,19,11,17,5.10
2013,02,19,11,18,5.20
2013,02,19,11,19,5.20
2013,02,19,11,20,5.30
2013,02,19,11,21,5.40
2013,02,19,11,22,5.50
2013,02,19,11,23,5.50
2013,02,19,11,24,5.60
2013,02,19,11,25,5.70
2013,02,19,11,26,5.80
2013,02,19,11,27,5.80
2013,02,19,11,28,5.90
2013,02,19,11,29,5.90
2013,02,19,11,30,5.90
2013,02,19,11,31,5.90
2013,02,19,11,32,5.90
2013,02,19,11,33,6.00
2013,02,19,11,34,6.00
2013,02,19,11,35,6.00
2013,02,19,11,36,6.10
2013,02,19,11,37,6.10
2013,02,19,11,38,6.10
2013,02,19,11,39,6.20
2013,02,19,11,40,6.20
2013,02,19,11,41,6.30
2013,02,19,11,42,6.30
2013,02,19,11,43,6.30
2013,02,19,11,44,6.40
2013,02,19,11,45,6.50
2013,02,19,11,46,6.50
2013,02,19,11,47,6.60
2013,02,19,11,48,6.60
2013,02,19,11,49,6.70
2013,02,19,11,50,6.80
2013,02,19,11,51,6.80
2013,02,19,11,52,6.90
2013,02,19,11,53,6.90
2013,02,19,11,54,7.00
2013,02,19,11,55,7.00
2013,02,19,11,56,7.10
2013,02,19,11,57,7.10
2013,02,19,11,58,7.10
2013,02,19,11,59,7.20
2013,02,19,12,00,7.20
2013,02,19,12,01,7.20
2013,02,19,12,02,7.30
2013,02,19,12,03,7.30
2013,02,19,12,04,7.40
2013,02,19,12,05,7.40
2013,02,19,12,06,7.50
2013,02,19,12,07,7.50
2013,02,19,12,08,7.60
2013,02,19,12,09,7.60
2013,02,19,12,10,7.60
2013,02,19,12,11,7.60
2013,02,19,12,12,7.70
2013,02,19,12,13,7.70
2013,02,19,12,14,7.80
2013,02,19,12,15,7.80
2013,02,19,12,16,7.90
2013,02,19,12,17,8.00
2013,02,19,12,18,8.00
2013,02,19,12,19,8.10
2013,02,19,12,20,8.10
2013,02,19,12,21,8.10
2013,02,19,12,22,8.20
2013,02,19,12,23,8.20
2013,02,19,12,24,8.20
2013,02,19,12,25,8.20
2013,02,19,12,26,8.30
2013,02,19,12,27,8.30
2013,02,19,12,28,8.30
2013,02,19,12,29,8.30
2013,02,19,12,30,8.30
2013,02,19,12,31,8.30
2013,02,19,12,32,8.30
2013,02,19,12,33,8.30
2013,02,19,12,34,8.30
2013,02,19,12,35,8.30
2013,02,19,12,36,8.20
2013,02,19,12,37,8.20
2013,02,19,12,38,8.20
2013,02,19,12,39,8.20
2013,02,19,12,40,8.20
2013,02,19,12,41,8.20
2013,02,19,12,42,8.20
2013,02,19,12,43,8.20
2013,02,19,12,44,8.20
2013,02,19,12,45,8.20
2013,02,19,12,46,8.20
2013,02,19,12,47,8.30
2013,02,19,12,48,8.30
2013,02,19,12,49,8.40
2013,02,19,12,50,8.40
2013,02,19,12,51,8.40
2013,02,19,12,52,8.40
2013,02,19,12,53,8.40
2013,02,19,12,54,8.40
2013,02,19,12,55,8.50
2013,02,19,12,56,8.50
2013,02,19,12,57,8.60
2013,02,19,12,58,8.70
2013,02,19,12,59,8.80
2013,02,19,13,00,8.90
2013,02,19,13,01,8.90
2013,02,19,13,02,8.90
2013,02,19,13,03,8.90
2013,02,19,13,04,8.90
2013,02,19,13,05,8.90
2013,02,19,13,06,8.90
2013,02,19,13,07,8.80
2013,02,19,13,08,8.90
2013,02,19,13,09,8.90
2013,02,19,13,10,8.90
2013,02,19,13,11,8.90
2013,02,19,13,12,9.00
2013,02,19,13,13,9.00
2013,02,19,13,14,9.10
2013,02,19,13,15,9.10
2013,02,19,13,16,9.20
2013,02,19,13,17,9.20
2013,02,19,13,18,9.20
2013,02,19,13,19,9.20
2013,02,19,13,20,9.30
2013,02,19,13,21,9.30
2013,02,19,13,22,9.30
2013,02,19,13,23,9.30
2013,02,19,13,24,9.40
2013,02,19,13,25,9.40
2013,02,19,13,26,9.50
2013,02,19,13,27,9.50
2013,02,19,13,28,9.50
2013,02,19,13,29,9.60
2013,02,19,13,30,9.60
2013,02,19,13,31,9.60
2013,02,19,13,32,9.60
2013,02,19,13,33,9.60
2013,02,19,13,34,9.60
2013,02,19,13,35,9.60
2013,02,19,13,36,9.60
2013,02,19,13,37,9.50
2013,02,19,13,38,9.50
2013,02,19,13,39,9.50
2013,02,19,13,40,9.50
2013,02,19,13,41,9.50
2013,02,19,13,42,9.60
2013,02,19,13,43,9.60
2013,02,19,13,44,9.70
2013,02,19,13,45,9.70
2013,02,19,13,46,9.70
2013,02,19,13,47,9.70
2013,02,19,13,48,9.70
2013,02,19,13,49,9.70
2013,02,19,13,50,9.80
2013,02,19,13,51,9.80
2013,02,19,13,52,9.90
2013,02,19,13,53,9.90
2013,02,19,13,54,9.90
2013,02,19,13,55,9.90
2013,02,19,13,56,9.80
2013,02,19,13,57,9.80
2013,02,19,13,58,9.90
2013,02,19,13,59,9.90
2013,02,19,14,00,9.90
2013,02,19,14,01,9.90
2013,02,19,14,02,9.90
2013,02,19,14,03,9.90
2013,02,19,14,04,9.90
2013,02,19,14,05,9.80
2013,02,19,14,06,9.80
2013,02,19,14,07,9.80
2013,02,19,14,08,9.80
2013,02,19,14,09,9.80
2013,02,19,14,10,9.80
2013,02,19,14,11,9.80
2013,02,19,14,12,9.80
2013,02,19,14,13,9.80
2013,02,19,14,14,9.90
2013,02,19,14,15,10.00
2013,02,19,14,16,10.00
2013,02,19,14,17,10.10
2013,02,19,14,18,10.20
2013,02,19,14,19,10.30
2013,02,19,14,20,10.40
2013,02,19,14,21,10.50
2013,02,19,14,22,10.50
2013,02,19,14,23,10.60
2013,02,19,14,24,10.60
2013,02,19,14,25,10.60
2013,02,19,14,26,10.60
2013,02,19,14,27,10.60
2013,02,19,14,28,10.60
2013,02,19,14,29,10.60
2013,02,19,14,30,10.60
2013,02,19,14,31,10.60
2013,02,19,14,32,10.50
2013,02,19,14,33,10.50
2013,02,19,14,34,10.50
2013,02,19,14,35,10.50
2013,02,19,14,36,10.50
2013,02,19,14,37,10.50
2013,02,19,14,38,10.50
2013,02,19,14,39,10.50
2013,02,19,14,40,10.50
2013,02,19,14,41,10.50
2013,02,19,14,42,10.50
2013,02,19,14,43,10.60
2013,02,19,14,44,10.60
2013,02,19,14,45,10.60
2013,02,19,14,46,10.60
2013,02,19,14,47,10.60
2013,02,19,14,48,10.50
2013,02,19,14,49,10.40
2013,02,19,14,50,10.40
2013,02,19,14,51,10.40
2013,02,19,14,52,10.40
2013,02,19,14,53,10.40
2013,02,19,14,54,10.40
2013,02,19,14,55,10.40
2013,02,19,14,56,10.40
2013,02,19,14,57,10.40
2013,02,19,14,58,10.40
2013,02,19,14,59,10.40
2013,02,19,15,00,10.40
2013,02,19,15,01,10.40
2013,02,19,15,02,10.40
2013,02,19,15,03,10.40
2013,02,19,15,04,10.40
2013,02,19,15,05,10.40
2013,02,19,15,06,10.40
2013,02,19,15,07,10.40
2013,02,19,15,08,10.50
2013,02,19,15,09,10.50
2013,02,19,15,10,10.50
2013,02,19,15,11,10.50
2013,02,19,15,12,10.50
2013,02,19,15,13,10.50
2013,02,19,15,14,10.40
2013,02,19,15,15,10.40
2013,02,19,15,16,10.40
2013,02,19,15,17,10.30
2013,02,19,15,18,10.30
2013,02,19,15,19,10.30
2013,02,19,15,20,10.30
2013,02,19,15,21,10.30
2013,02,19,15,22,10.30
2013,02,19,15,23,10.40
2013,02,19,15,24,10.40
2013,02,19,15,25,10.40
2013,02,19,15,26,10.40
2013,02,19,15,27,10.40
2013,02,19,15,28,10.50
2013,02,19,15,29,10.40
2013,02,19,15,30,10.40
2013,02,19,15,31,10.50
2013,02,19,15,32,10.50
2013,02,19,15,33,10.50
2013,02,19,15,34,10.60
2013,02,19,15,35,10.60
2013,02,19,15,36,10.60
2013,02,19,15,37,10.70
2013,02,19,15,38,10.70
2013,02,19,15,39,10.70
2013,02,19,15,40,10.70
2013,02,19,15,41,10.80
2013,02,19,15,42,10.80
2013,02,19,15,43,10.90
2013,02,19,15,44,10.90
2013,02,19,15,45,10.90
2013,02,19,15,46,10.80
2013,02,19,15,47,10.70
2013,02,19,15,48,10.60
2013,02,19,15,49,10.40
2013,02,19,15,50,10.30
2013,02,19,15,51,10.30
2013,02,19,15,52,10.20
2013,02,19,15,53,10.20
2013,02,19,15,54,10.10
2013,02,19,15,55,10.10
2013,02,19,15,56,10.10
2013,02,19,15,57,10.10
2013,02,19,15,58,10.10
2013,02,19,15,59,10.00
2013,02,19,16,00,10.00
2013,02,19,16,01,10.00
2013,02,19,16,02,10.00
2013,02,19,16,03,10.00
2013,02,19,16,04,9.90
2013,02,19,16,05,9.90
2013,02,19,16,06,9.90
2013,02,19,16,07,9.80
2013,02,19,16,08,9.80
2013,02,19,16,09,9.80
2013,02,19,16,10,9.80
2013,02,19,16,11,9.80
2013,02,19,16,12,9.80
2013,02,19,16,13,9.80
2013,02,19,16,14,9.80
2013,02,19,16,15,9.90
2013,02,19,16,16,9.90
2013,02,19,16,17,9.90
2013,02,19,16,18,9.90
2013,02,19,16,19,9.90
2013,02,19,16,20,9.90
2013,02,19,16,21,9.90
2013,02,19,16,22,9.90
2013,02,19,16,23,9.90
2013,02,19,16,24,9.80
2013,02,19,16,25,9.70
2013,02,19,16,26,9.70
2013,02,19,16,27,9.60
2013,02,19,16,28,9.50
2013,02,19,16,29,9.40
2013,02,19,16,30,9.30
2013,02,19,16,31,9.20
2013,02,19,16,32,9.10
2013,02,19,16,33,9.00
2013,02,19,16,34,8.90
2013,02,19,16,35,8.80
2013,02,19,16,36,8.70
2013,02,19,16,37,8.60
2013,02,19,16,38,8.60
2013,02,19,16,39,8.50
2013,02,19,16,40,8.50
2013,02,19,16,41,8.40
2013,02,19,16,42,8.40
2013,02,19,16,43,8.40
2013,02,19,16,44,8.30
2013,02,19,16,45,8.30
2013,02,19,16,46,8.20
2013,02,19,16,47,8.10
2013,02,19,16,48,8.10
2013,02,19,16,49,8.00
2013,02,19,16,50,7.90
2013,02,19,16,51,7.90
2013,02,19,16,52,7.80
2013,02,19,16,53,7.80
2013,02,19,16,54,7.80
2013,02,19,16,55,7.80
2013,02,19,16,56,7.80
2013,02,19,16,57,7.70
2013,02,19,16,58,7.70
2013,02,19,16,59,7.70
2013,02,19,17,00,7.60
2013,02,19,17,01,7.60
2013,02,19,17,02,7.50
2013,02,19,17,03,7.50
2013,02,19,17,04,7.40
2013,02,19,17,05,7.30
2013,02,19,17,06,7.30
2013,02,19,17,07,7.30
2013,02,19,17,08,7.20
2013,02,19,17,09,7.20
2013,02,19,17,10,7.10
2013,02,19,17,11,7.10
2013,02,19,17,12,7.00
2013,02,19,17,13,7.00
2013,02,19,17,14,6.90
2013,02,19,17,15,6.90
2013,02,19,17,16,6.90
2013,02,19,17,17,6.80
2013,02,19,17,18,6.80
2013,02,19,17,19,6.70
2013,02,19,17,20,6.70
2013,02,19,17,21,6.60
2013,02,19,17,22,6.60
2013,02,19,17,23,6.60
2013,02,19,17,24,6.50
2013,02,19,17,25,6.50
2013,02,19,17,26,6.50
2013,02,19,17,27,6.40
2013,02,19,17,28,6.40
2013,02,19,17,29,6.30
2013,02,19,17,30,6.30
2013,02,19,17,31,6.20
2013,02,19,17,32,6.20
2013,02,19,17,33,6.10
2013,02,19,17,34,6.10
2013,02,19,17,35,6.10
2013,02,19,17,36,6.00
2013,02,19,17,37,6.00
2013,02,19,17,38,5.90
2013,02,19,17,39,5.90
2013,02,19,17,40,5.90
2013,02,19,17,41,5.80
2013,02,19,17,42,5.80
2013,02,19,17,43,5.80
2013,02,19,17,44,5.80
2013,02,19,17,45,5.70
2013,02,19,17,46,5.70
2013,02,19,17,47,5.60
2013,02,19,17,48,5.60
2013,02,19,17,49,5.60
2013,02,19,17,50,5.50
2013,02,19,17,51,5.50
2013,02,19,17,52,5.50
2013,02,19,17,53,5.40
2013,02,19,17,54,5.40
2013,02,19,17,55,5.30
2013,02,19,17,56,5.30
2013,02,19,17,57,5.30
2013,02,19,17,58,5.30
2013,02,19,17,59,5.30
2013,02,19,18,00,5.20
2013,02,19,18,01,5.20